Theta_e
302 303 305 305 307 307 306 309 312 312 312 312 311 313 315 315 315 315 315 315 315 315 315 316 316 316 316 316 316 316 315 317 320 323 324 324 324 323 321 320 319 319 318 318 318 318 318 320 319 319 319 318 317 319 320 319 319 319 319 322 323 322 322 322 320 320 320 322 324 325 327 323 330 341 340 343 348 348 348 350 350 350 349 350 350 348 347 347
304 304 306 306 307 308 306 307 310 312 311 311 311 311 313 314 315 315 315 315 314 315 315 316 316 316 316 316 316 316 316 319 321 323 325 326 324 321 319 319 318 317 317 319 321 319 317 319 319 317 316 316 317 318 319 319 319 319 319 320 322 323 323 323 322 321 321 323 324 324 327 332 340 343 341 346 350 349 349 350 350 352 351 349 348 347 347 346
304 305 305 307 307 308 307 306 308 311 311 311 310 310 312 313 314 315 315 315 314 314 315 315 316 316 316 316 316 316 317 321 324 326 327 324 321 318 318 318 317 317 317 319 322 321 320 319 319 317 315 315 316 316 318 318 319 319 319 320 321 323 323 323 323 321 320 321 326 330 331 337 340 342 343 345 347 349 350 350 351 353 352 349 347 346 346 346
301 304 305 307 308 308 308 307 307 309 310 309 309 310 311 312 313 314 314 315 314 314 315 315 316 316 316 316 316 316 319 323 326 328 325 320 317 316 319 320 319 318 318 320 321 320 320 319 319 317 315 316 315 316 317 318 320 319 319 319 320 321 321 322 322 321 322 321 327 332 333 338 341 342 344 345 346 348 348 349 351 352 351 350 347 345 346 346
300 302 304 306 308 308 307 308 308 308 308 308 307 308 310 312 312 313 313 314 315 314 314 315 316 316 316 316 316 317 321 326 327 326 322 317 317 315 320 323 321 320 320 321 321 320 319 318 317 316 316 316 316 319 319 318 319 319 319 319 320 320 321 323 322 321 319 319 328 333 337 342 343 343 343 345 347 345 344 344 346 349 349 348 346 345 345 345
301 301 303 304 306 308 308 308 309 308 309 309 308 308 309 311 312 312 313 314 314 314 314 315 315 316 316 316 317 319 323 328 328 324 319 316 317 316 319 322 321 321 322 321 321 319 317 317 316 317 316 316 316 318 320 319 318 320 320 318 319 320 321 320 319 323 325 329 338 341 343 342 341 342 340 341 342 339 339 338 340 347 348 346 346 345 345 345
301 301 301 302 304 306 308 309 309 309 309 310 310 308 308 310 311 313 313 313 314 314 314 314 316 316 316 317 319 322 323 327 328 323 318 316 317 318 318 319 320 323 324 322 320 318 317 316 316 317 315 317 318 317 317 318 318 320 320 319 319 319 320 323 327 334 336 338 340 341 341 341 342 342 339 340 339 335 336 338 339 345 347 346 346 345 345 344
301 301 301 301 302 305 307 308 308 309 309 311 311 310 309 309 310 312 313 313 313 314 314 314 316 316 316 318 323 326 326 327 328 322 318 318 320 320 321 321 322 325 325 322 320 317 317 316 316 316 315 318 319 318 317 319 320 320 320 321 318 318 324 328 331 335 337 336 337 338 340 340 341 339 338 338 338 336 336 338 339 343 344 345 346 345 345 344
301 301 301 301 301 303 305 306 307 308 310 311 311 311 310 310 310 311 313 313 313 313 313 314 316 316 316 318 323 329 328 325 327 325 322 323 323 323 325 326 324 325 323 320 320 318 318 317 317 317 316 320 321 319 318 320 321 320 321 325 321 322 328 330 332 334 336 336 336 338 338 338 337 338 338 337 337 337 337 338 340 342 341 342 345 345 345 345
301 301 301 301 301 302 304 305 306 307 310 312 312 311 311 311 310 310 312 313 313 313 313 314 316 316 318 321 326 330 327 324 327 328 327 326 326 326 326 325 322 322 321 319 319 319 318 317 318 317 317 322 321 319 319 321 321 320 322 325 324 326 329 332 333 334 335 335 335 338 339 338 337 339 340 337 337 339 339 340 340 340 339 338 342 345 345 344
301 301 301 301 301 302 302 303 304 306 309 312 312 311 311 311 310 311 313 314 314 313 313 315 316 316 320 323 328 329 324 324 326 325 325 325 326 326 325 322 320 322 322 320 319 318 318 318 318 317 319 322 320 319 321 322 321 321 322 324 325 326 329 332 334 334 335 335 335 338 339 338 338 340 341 337 338 341 341 342 340 339 339 337 340 343 344 344
302 301 302 301 301 301 302 302 303 305 307 311 311 310 310 310 310 311 314 314 314 313 314 315 315 317 321 324 328 327 322 325 324 323 323 324 325 324 323 321 321 322 321 321 321 319 319 319 318 318 321 321 319 320 321 321 321 321 323 325 327 329 331 333 334 335 335 334 334 337 339 339 340 340 340 339 341 341 339 341 340 339 340 338 340 342 342 342
301 301 302 302 301 302 302 302 303 304 306 308 308 308 309 310 311 312 314 313 313 314 315 316 315 318 322 328 329 324 323 325 324 324 323 324 324 322 322 323 322 323 321 322 323 320 318 320 319 320 321 319 320 321 321 322 322 322 324 325 326 329 332 332 333 335 336 335 333 336 339 339 339 339 339 339 342 342 338 340 341 340 340 339 341 342 342 342
301 301 301 301 302 302 302 302 303 304 305 306 307 307 308 311 313 314 314 313 313 315 316 316 316 320 324 329 327 323 324 324 324 324 324 325 324 322 322 323 323 323 322 321 322 320 319 320 320 320 321 319 320 321 323 324 322 323 325 323 324 329 332 333 333 334 336 335 333 336 339 339 338 339 339 339 340 342 340 339 340 341 342 342 342 342 343 343
301 301 302 302 302 302 302 302 303 304 306 307 307 308 310 314 316 316 315 314 315 317 317 317 318 322 328 331 327 324 324 323 325 324 324 324 324 323 322 322 323 323 322 321 321 321 320 321 322 321 321 320 320 322 324 324 322 324 324 319 321 327 331 332 332 334 337 336 334 337 338 338 339 339 339 340 339 343 342 338 340 342 344 344 343 342 343 343
301 301 302 302 302 302 302 302 303 304 306 307 307 310 314 317 318 317 317 316 317 318 317 320 323 324 329 330 326 324 323 324 325 325 325 324 324 324 322 322 323 323 323 321 321 322 322 322 322 322 322 321 321 322 323 323 323 323 322 321 322 325 330 332 331 332 335 336 336 337 338 339 340 338 338 340 340 343 343 340 341 343 343 344 343 342 343 343
302 302 302 302 302 302 302 302 303 305 307 307 308 313 317 319 318 318 318 318 318 318 318 324 326 326 330 328 324 324 324 325 325 325 325 324 324 325 323 322 322 323 323 322 322 322 322 323 323 322 322 322 322 323 324 322 322 322 321 324 326 324 328 332 332 332 334 337 338 338 338 339 339 338 338 339 339 342 344 342 342 342 342 342 342 341 342 342
303 302 303 303 303 303 303 303 303 305 307 307 310 317 320 319 318 317 319 320 319 320 322 324 326 328 330 328 326 325 325 326 325 324 325 323 324 324 323 322 322 323 324 324 323 322 323 324 323 323 322 323 324 324 324 322 320 321 320 322 326 325 326 331 334 333 333 336 337 338 339 339 338 338 339 338 338 340 342 343 342 340 340 340 340 340 340 341
304 304 305 305 305 305 304 304 304 306 307 308 313 319 321 320 319 319 321 323 324 329 331 328 328 330 328 326 327 325 324 324 324 325 325 324 324 323 323 323 322 324 325 326 325 323 324 324 324 327 326 323 324 323 323 324 322 323 323 323 326 327 326 331 333 332 334 336 335 338 340 339 338 338 338 337 337 338 338 341 341 339 339 339 340 339 340 340
306 306 308 310 310 307 306 305 304 306 308 308 314 320 325 328 328 328 327 327 329 331 330 329 329 329 324 324 325 324 324 324 324 325 325 324 324 323 323 323 322 325 325 325 326 324 324 327 327 332 331 326 325 325 326 328 325 326 327 327 330 329 328 331 333 332 334 334 334 338 339 340 340 339 338 337 337 338 337 339 340 339 340 339 339 339 339 340
307 309 311 314 314 311 309 306 306 308 308 309 314 322 330 328 325 326 327 327 330 329 328 328 327 326 324 325 325 325 324 324 324 325 326 324 323 324 324 323 326 329 328 326 329 327 326 330 330 329 328 326 327 328 330 330 327 328 329 329 331 332 332 334 334 334 334 334 334 337 339 339 339 339 338 337 338 339 338 340 339 338 339 339 339 338 338 339
308 310 313 316 317 315 311 307 307 308 307 311 316 324 327 325 322 323 325 326 328 328 329 328 325 325 325 325 325 325 324 324 325 325 325 324 323 325 324 325 330 333 331 329 334 332 330 333 332 328 326 327 330 330 330 329 328 328 328 329 330 332 336 337 335 335 336 335 335 336 338 338 337 338 337 337 339 339 338 341 341 339 338 338 338 338 338 338
308 310 313 316 318 317 312 308 308 308 308 313 322 325 325 323 321 323 325 327 328 328 327 326 325 325 325 326 325 325 324 325 325 324 325 324 323 324 324 325 331 333 331 330 334 333 332 333 331 330 329 330 332 331 329 329 330 330 328 329 330 332 337 339 336 336 336 335 335 335 336 338 338 339 339 337 339 339 338 340 341 341 340 339 338 338 338 338
308 311 314 317 318 318 313 308 308 308 310 315 320 323 323 321 321 324 325 328 330 329 328 326 324 325 325 325 325 325 325 325 325 325 325 324 324 325 325 325 328 330 329 328 330 332 331 329 328 330 331 332 333 332 331 328 328 331 330 330 332 332 333 337 337 336 337 335 333 333 332 336 339 340 340 339 339 339 340 340 339 339 339 339 339 339 339 339
308 311 316 317 319 317 310 310 312 311 314 319 321 323 322 320 322 325 327 330 331 330 328 326 325 326 325 325 325 325 325 325 325 325 325 325 325 325 325 326 327 329 329 329 331 331 329 328 328 331 333 332 333 333 332 328 326 328 331 332 333 333 333 337 338 336 335 334 332 332 330 333 337 338 339 338 339 340 340 341 340 339 339 339 339 339 338 338
308 312 316 317 318 314 311 318 322 317 318 321 323 324 320 319 323 326 331 333 330 329 327 327 327 326 324 325 325 324 325 326 326 326 326 326 325 324 325 327 328 329 329 328 331 330 329 328 328 331 333 333 334 333 333 335 335 330 329 330 332 334 335 336 336 334 333 333 333 332 331 334 335 334 338 337 338 341 340 341 341 340 340 339 339 339 338 338
308 313 316 317 317 312 314 323 322 318 319 320 323 323 318 321 325 328 337 335 327 325 327 327 328 326 324 325 325 324 324 326 327 327 326 326 325 324 327 328 329 329 327 331 333 330 327 329 329 330 333 336 337 334 333 338 341 336 330 329 332 335 336 335 335 334 333 333 333 331 334 341 340 334 335 337 337 340 339 340 341 340 340 339 338 338 337 339
309 313 316 317 315 311 312 314 316 319 321 320 321 320 318 323 327 331 339 334 326 324 328 327 327 326 325 326 326 325 326 326 327 327 326 326 326 326 328 330 331 330 327 332 333 331 328 331 331 330 332 337 337 334 333 336 339 337 331 331 334 336 337 335 335 334 334 333 330 330 334 342 344 338 335 337 337 338 338 340 340 338 339 339 338 338 337 338
310 314 316 316 314 315 314 311 314 318 318 318 318 319 319 324 331 335 337 334 329 326 330 327 326 326 326 327 327 326 326 326 327 327 326 327 327 328 330 330 330 332 331 330 331 331 331 331 330 331 332 334 333 332 333 333 335 334 332 334 335 337 338 337 337 337 337 336 332 333 332 337 342 337 334 339 338 337 338 338 338 338 338 337 337 338 338 338
310 314 316 314 316 322 323 317 316 315 316 318 319 319 320 326 335 334 332 332 327 325 328 327 327 327 327 327 328 328 326 327 327 326 327 327 327 327 329 329 329 334 335 332 332 331 331 329 328 331 332 332 332 331 331 332 333 333 335 336 336 339 339 337 339 339 339 340 338 336 333 337 341 336 334 340 338 337 338 336 337 338 337 336 336 338 338 338
311 315 316 314 316 321 323 322 322 320 319 320 318 319 323 332 337 331 328 328 325 327 328 327 328 327 328 327 328 328 326 327 327 327 327 327 329 328 328 329 330 333 334 333 335 334 331 332 331 330 331 330 331 332 332 332 332 334 336 335 336 339 339 335 336 338 341 343 340 336 333 337 341 338 336 338 335 336 338 336 336 337 337 337 337 337 336 338
311 315 316 315 315 315 316 320 324 323 321 320 318 320 326 332 333 328 327 325 326 330 327 326 327 326 328 328 328 328 326 327 326 326 328 327 330 331 329 329 331 335 335 333 336 336 333 332 332 330 330 330 332 333 332 332 333 337 340 339 338 337 335 335 333 336 342 342 338 335 335 336 338 337 338 340 337 336 336 336 337 337 337 337 337 338 337 339
311 315 316 317 315 312 313 319 323 322 322 320 320 323 327 328 327 323 323 323 325 329 326 326 327 326 328 327 328 328 327 328 326 326 328 327 331 334 331 329 329 334 335 332 336 339 336 332 331 332 330 329 332 333 332 333 335 338 340 340 340 335 333 335 334 334 340 339 336 336 335 336 339 338 340 342 340 337 336 336 337 338 338 337 336 339 341 342
312 315 316 318 318 315 315 318 321 322 322 321 321 325 326 326 325 322 322 325 326 327 327 327 327 327 328 327 328 328 326 328 328 328 328 328 336 338 335 331 329 332 335 331 333 338 334 329 330 332 332 330 331 333 333 334 335 336 338 339 337 334 335 336 334 335 340 340 338 336 335 339 342 340 339 341 341 338 336 335 337 339 340 339 336 337 341 341
313 316 316 320 323 322 319 317 321 323 322 321 322 324 323 322 322 321 323 325 325 327 326 326 328 326 327 328 329 328 327 327 327 329 329 328 333 336 333 332 330 331 334 331 329 332 330 328 329 330 330 330 331 331 332 335 337 335 333 335 334 334 338 339 338 339 340 340 339 337 338 342 343 340 337 338 340 338 336 335 338 339 339 340 341 340 340 340
317 323 323 325 329 329 325 321 323 324 322 321 321 321 322 322 321 322 325 325 325 327 327 328 329 325 326 331 330 327 328 329 328 328 328 328 329 330 330 331 330 330 332 330 330 332 329 328 329 330 331 330 331 331 331 336 338 335 332 333 333 334 338 338 337 338 337 339 340 339 340 341 342 342 341 338 338 338 337 337 338 339 339 341 344 342 339 339
321 328 329 331 330 328 324 322 324 324 321 320 320 321 322 323 323 323 323 324 325 327 328 328 329 326 326 331 332 331 329 329 328 327 325 329 331 329 330 330 329 330 330 330 331 332 332 330 329 331 332 330 331 330 331 334 335 334 333 332 332 336 341 337 332 333 336 339 340 340 340 340 341 344 343 339 337 337 337 337 337 338 339 340 341 339 337 338
322 326 327 329 325 322 322 322 322 322 321 320 321 321 321 321 321 321 322 324 324 327 328 329 330 328 327 330 332 332 331 330 331 329 325 329 332 329 330 331 329 329 329 329 331 332 336 334 330 331 333 330 330 332 332 332 330 332 332 332 337 337 338 337 332 333 335 336 340 340 340 340 340 342 342 340 338 337 337 338 336 335 337 338 338 338 338 338
325 327 327 328 324 321 322 321 321 321 321 322 322 322 322 321 321 322 323 323 324 326 329 331 332 330 331 333 331 330 333 333 333 330 326 328 332 330 328 331 331 329 328 329 330 331 335 333 328 330 332 331 331 332 333 333 330 331 331 333 337 333 332 336 337 338 335 333 338 341 341 340 338 339 341 340 339 339 338 339 338 337 338 338 339 338 338 338
328 329 327 325 323 323 322 322 322 321 322 324 324 324 322 320 320 322 323 322 324 325 328 331 331 332 333 334 332 330 332 333 332 330 328 330 331 330 328 330 331 329 328 329 330 330 333 332 328 330 332 330 329 331 334 334 331 330 329 329 330 327 329 335 336 338 337 331 332 339 342 340 337 337 340 340 339 339 338 339 339 339 339 339 339 338 338 338
324 326 325 323 323 324 324 325 324 322 323 325 326 324 322 321 321 321 322 322 323 325 327 327 329 332 334 332 331 331 331 331 331 330 329 330 330 330 331 328 329 329 328 330 330 328 331 331 328 331 333 328 326 330 333 333 334 333 329 328 327 325 329 332 334 337 336 330 329 336 341 342 340 338 339 339 339 338 338 339 339 339 339 340 340 339 338 338
325 326 325 324 324 325 324 326 326 325 326 326 324 323 322 322 320 319 321 323 323 325 325 326 328 330 332 332 332 332 332 331 330 330 329 329 329 331 331 328 328 329 328 331 331 330 332 333 328 327 329 328 327 331 330 330 333 333 331 332 330 331 335 334 335 337 334 330 329 331 338 342 341 340 338 336 337 337 336 339 338 338 339 339 339 338 338 338
326 326 325 325 325 325 323 325 327 327 327 324 322 323 322 321 321 320 322 324 324 326 327 328 329 329 330 332 333 334 334 332 329 330 330 331 330 329 330 330 329 329 329 330 330 331 333 333 329 325 324 326 329 331 331 331 333 332 332 333 330 332 337 335 333 334 333 331 329 329 337 342 340 340 338 335 336 336 336 338 338 338 338 337 338 338 338 338
320 323 325 325 326 325 323 325 328 329 328 327 326 325 323 321 321 320 322 324 326 327 328 328 328 329 329 331 332 333 333 332 332 331 330 331 332 330 328 328 329 330 329 328 329 330 330 331 332 327 322 323 325 328 330 331 332 333 333 333 331 329 331 332 331 332 332 330 327 329 337 341 339 339 337 335 335 336 336 337 336 337 337 336 337 337 337 337
321 323 324 325 326 324 321 323 327 328 330 331 329 326 325 323 321 321 322 324 323 324 327 328 328 328 329 330 331 332 331 331 333 334 332 332 333 331 328 327 330 330 330 332 332 331 331 333 333 329 324 324 324 325 327 328 330 334 333 330 331 330 330 330 327 327 329 329 328 331 337 340 340 339 337 336 336 336 336 335 335 336 336 335 336 336 336 336
322 324 323 325 326 324 322 321 323 325 327 330 328 325 325 324 323 323 323 323 325 325 326 326 326 327 328 330 332 332 331 331 333 333 333 333 335 332 329 328 328 329 332 335 334 332 334 334 333 330 327 327 326 326 329 330 330 332 332 329 330 332 332 330 328 329 331 331 332 335 337 340 340 339 338 338 337 336 336 335 335 335 335 335 335 335 336 336
324 324 324 328 328 326 325 324 325 326 327 328 327 326 326 325 324 325 324 324 326 326 326 326 327 328 330 332 334 335 333 331 333 333 333 334 334 331 329 328 327 330 333 332 330 333 333 330 331 334 331 329 328 327 330 330 328 328 328 328 330 332 333 331 330 331 331 334 338 338 337 338 339 338 338 338 337 337 337 335 335 335 335 335 335 335 335 334
324 323 324 327 327 326 327 329 329 329 328 327 328 327 328 327 327 329 329 327 326 326 328 328 328 328 329 331 334 335 333 331 333 335 334 333 332 331 331 330 328 330 332 329 330 335 333 329 331 334 332 331 331 331 331 330 329 329 329 328 329 330 331 330 330 332 332 334 338 338 337 338 338 336 336 336 336 337 337 335 335 334 334 334 334 334 334 333
321 324 325 326 325 324 327 329 329 328 327 327 327 327 329 328 329 330 329 329 329 328 328 329 328 328 328 330 332 334 334 333 334 335 334 333 332 333 334 332 329 329 329 329 332 335 333 331 333 332 329 330 331 332 335 335 332 329 328 330 330 330 331 331 332 336 336 335 336 337 337 338 336 335 335 335 335 335 335 335 334 333 333 332 332 332 332 332
319 323 325 324 324 324 325 326 326 326 327 329 328 327 328 329 329 330 328 330 331 330 329 330 329 328 328 330 331 332 333 333 333 332 333 334 333 333 334 332 330 329 330 330 333 335 332 331 333 333 332 332 331 331 335 337 333 328 329 331 330 331 333 333 334 337 337 337 338 338 338 337 335 334 334 334 334 333 334 334 333 332 332 331 331 331 330 330
319 321 323 323 322 324 325 324 325 325 325 329 329 328 328 329 329 330 328 327 330 330 329 329 329 328 327 330 331 331 331 332 330 328 330 332 331 330 332 331 328 329 330 330 333 334 332 331 331 331 331 331 330 330 333 335 332 329 331 332 331 331 333 334 335 336 337 337 337 337 337 337 335 333 334 334 333 333 333 333 332 331 331 331 330 330 329 329
320 321 324 325 324 324 325 323 323 323 325 327 328 327 327 327 327 328 328 327 326 327 328 328 328 327 327 329 330 330 328 327 328 327 327 328 327 327 329 329 328 329 329 331 335 334 333 331 330 330 330 328 328 333 335 335 336 335 335 335 334 332 333 335 336 337 337 337 337 335 335 336 334 334 334 334 333 333 332 332 331 331 329 329 329 328 328 327
Wind_Speed
13 13 13 13 14 14 13 13 13 13 13 13 13 12 12 13 13 12 12 12 12 13 13 14 14 15 15 15 16 16 17 17 17 18 16 14 14 14 12 9 7 8 8 7 8 10 10 10 12 13 12 10 9 8 11 12 9 8 8 9 9 9 10 12 14 13 13 16 12 8 12 15 6 16 14 13 16 16 13 10 10 10 10 15 24 32 32 27
13 13 13 13 13 14 14 14 13 13 13 13 13 13 12 13 13 13 13 12 12 13 13 14 14 14 15 15 15 15 17 17 18 20 19 18 17 16 15 13 11 9 9 9 9 10 9 9 10 11 10 8 8 9 11 10 9 9 8 9 9 9 12 13 16 16 17 15 5 7 6 2 7 11 11 13 14 14 14 10 11 15 17 20 26 31 31 28
14 14 13 13 13 14 14 14 14 14 14 14 14 14 12 12 13 13 13 13 13 13 13 14 14 14 14 15 15 14 15 19 17 10 9 13 14 15 14 11 11 11 11 11 9 9 9 10 10 10 10 8 8 10 11 9 9 10 8 9 10 11 14 15 19 19 21 16 1 5 8 11 9 6 5 13 14 11 12 12 14 19 20 21 23 25 27 26
15 15 14 14 14 14 14 15 14 14 14 14 14 14 13 12 12 13 13 13 13 13 13 14 14 14 14 15 14 13 14 15 7 3 3 7 10 11 9 8 11 11 11 12 9 8 10 11 11 11 10 8 9 8 9 9 8 8 9 10 10 13 16 16 18 18 21 16 2 5 3 9 10 8 6 9 12 7 7 8 14 22 23 22 23 22 21 21
16 16 15 15 14 14 14 15 15 14 14 15 15 14 14 13 12 13 13 13 13 13 13 13 14 14 15 15 13 12 11 7 4 7 7 11 10 8 4 6 9 10 11 10 8 8 9 10 9 9 9 8 7 5 8 10 7 7 12 14 12 13 13 13 16 17 21 14 5 6 3 9 11 12 11 5 4 1 1 3 1 14 21 21 23 22 19 19
17 17 16 16 15 15 15 15 16 15 15 15 15 15 14 14 13 13 13 13 13 13 13 13 14 14 14 14 12 10 8 4 5 7 9 10 7 3 4 5 9 11 10 8 8 9 9 10 8 7 8 7 5 6 9 8 7 8 12 16 15 13 11 11 14 12 13 6 11 10 9 10 9 9 11 8 6 5 6 6 3 6 16 19 20 21 19 19
18 18 17 17 17 16 16 16 17 16 16 15 16 15 15 14 14 14 13 13 13 13 13 12 13 13 14 14 11 8 9 8 2 6 8 8 8 9 11 10 12 11 9 9 8 8 8 9 8 7 8 6 3 9 11 7 8 9 13 15 14 15 10 7 11 11 14 17 15 12 12 10 8 7 8 8 7 3 4 4 3 2 9 15 16 18 19 19
18 18 18 18 18 17 17 17 17 17 16 16 16 15 15 15 15 15 14 13 13 13 12 12 11 10 11 13 9 7 9 5 5 4 6 10 10 9 12 11 11 10 9 10 8 7 7 8 8 7 7 4 1 8 8 5 8 10 15 15 12 12 3 10 12 16 19 15 13 15 14 11 10 8 7 7 4 4 2 2 5 2 4 10 14 17 17 17
18 18 19 19 19 18 18 18 18 18 17 16 16 16 16 16 16 15 14 14 13 12 12 11 10 8 9 10 8 7 3 5 8 1 5 9 7 7 8 10 10 10 9 6 6 6 5 6 6 6 7 2 3 8 4 2 6 8 14 16 9 3 11 14 10 13 14 9 9 13 10 6 8 8 7 3 4 3 2 3 8 7 5 6 11 17 15 16
19 19 19 19 20 19 19 19 19 19 18 16 17 17 17 16 16 16 15 14 12 12 11 10 8 7 9 10 8 6 1 8 7 5 6 7 7 7 9 9 8 10 7 1 3 6 6 5 4 7 7 0 2 7 3 2 7 9 15 14 8 9 10 11 10 10 9 9 9 9 5 1 3 3 4 5 7 3 1 4 6 9 8 7 9 14 14 15
19 19 19 19 19 20 20 20 20 20 19 17 17 17 17 17 17 16 15 13 12 11 9 8 5 6 10 9 8 5 4 8 6 7 7 6 8 8 8 5 6 7 5 2 3 5 5 4 5 6 4 1 5 6 3 6 12 10 12 9 8 9 6 10 10 7 6 6 6 5 5 1 2 2 6 8 4 5 3 5 6 8 9 6 8 10 11 12
19 19 19 19 19 20 21 20 20 20 19 18 18 18 19 18 17 17 15 13 11 9 6 6 3 5 10 8 9 6 3 7 6 7 7 7 7 7 4 4 6 6 5 4 6 5 3 3 9 7 1 3 5 3 5 7 9 7 6 5 7 6 7 10 6 5 5 2 3 4 3 3 2 5 7 5 4 8 2 5 7 6 8 6 8 8 10 11
20 20 20 20 19 20 21 21 21 21 21 20 19 20 20 19 17 17 15 13 10 8 6 4 3 6 8 7 7 5 3 7 7 8 8 7 6 4 4 5 5 5 4 4 7 6 4 4 7 5 1 3 2 1 5 4 4 5 3 2 5 3 5 5 4 3 5 3 4 4 2 3 5 7 7 5 6 8 1 5 7 7 9 8 8 9 10 10
21 21 21 20 20 20 20 21 21 21 21 20 20 21 21 19 17 16 15 12 8 6 4 3 3 5 5 7 7 3 5 6 8 10 10 8 6 4 4 6 6 6 4 5 6 3 3 5 4 3 4 4 3 4 4 4 4 4 3 2 1 1 2 2 2 2 1 5 6 3 2 5 8 9 7 4 6 11 6 8 8 6 8 10 9 10 10 9
21 21 22 21 20 20 20 21 21 22 22 21 20 20 20 18 15 14 13 9 5 2 1 3 6 5 5 9 8 6 7 7 10 11 10 10 7 5 3 5 7 7 4 5 5 2 2 5 5 4 3 4 6 6 3 4 6 5 3 3 4 2 1 1 2 3 4 3 7 5 3 4 9 7 8 6 4 11 9 9 10 7 7 10 10 10 9 8
23 22 22 22 21 20 20 21 21 22 22 21 20 19 18 15 12 11 8 5 4 3 2 4 9 10 7 4 3 7 8 9 11 11 10 10 9 7 4 3 6 7 5 5 5 2 2 5 6 4 2 4 6 6 4 5 6 5 5 3 3 3 3 1 3 7 9 4 7 6 3 3 7 7 8 7 5 9 10 11 10 9 9 10 10 10 9 9
24 23 23 23 22 20 20 20 21 21 21 21 20 17 14 13 9 6 4 1 2 3 6 8 7 9 8 4 2 5 8 10 9 10 10 11 10 7 7 3 5 5 6 6 3 3 1 3 5 3 4 5 4 3 3 5 5 5 5 2 3 3 3 3 3 8 11 7 6 7 4 3 8 9 7 5 5 5 7 11 10 9 10 10 10 9 9 9
26 25 24 23 22 21 20 20 21 20 20 20 17 14 13 12 7 3 2 2 3 5 9 9 7 4 6 8 11 6 6 6 5 8 10 10 9 6 7 5 3 3 6 4 3 2 1 0 3 3 4 4 5 5 4 5 6 6 6 3 4 5 5 7 5 7 10 9 7 8 7 6 10 10 7 4 4 3 5 8 9 9 9 9 8 9 9 9
27 25 24 23 22 21 20 20 20 19 20 18 13 13 13 9 4 4 7 5 5 4 4 6 8 5 7 3 9 4 5 4 3 7 10 8 8 8 8 6 3 1 4 3 3 3 2 1 2 4 3 5 7 6 3 6 4 6 6 4 4 5 5 7 5 7 12 9 7 7 6 9 10 8 6 4 4 3 7 10 9 9 8 8 7 7 8 8
26 25 24 23 22 20 20 20 19 17 18 17 13 10 8 5 2 3 7 9 9 9 12 9 10 10 10 5 6 3 6 6 7 8 9 8 8 8 8 7 5 3 1 3 3 2 2 3 3 3 5 9 4 3 7 10 2 5 3 2 4 4 4 8 6 8 11 8 7 6 5 9 10 8 7 5 4 5 10 12 10 9 8 8 8 8 8 8
26 25 24 23 22 20 19 19 17 15 14 14 12 7 6 6 6 6 4 7 12 13 17 15 8 10 7 4 8 2 4 7 9 8 8 8 8 6 5 5 4 2 2 3 0 1 2 3 4 8 10 13 7 5 10 8 4 5 2 1 4 3 2 4 7 10 10 7 7 8 7 6 6 7 8 5 5 7 12 12 11 12 10 7 7 8 7 7
26 24 23 23 22 20 19 18 15 13 12 9 7 9 7 9 7 9 9 9 13 12 14 15 10 8 4 3 3 4 2 6 5 8 10 8 8 5 3 3 2 1 2 4 3 1 4 3 5 10 13 13 8 6 7 2 2 3 1 1 2 2 3 2 5 8 8 5 6 10 8 5 5 7 8 8 7 7 11 10 7 8 10 9 9 8 7 7
26 24 23 23 22 20 18 17 13 12 12 7 9 11 8 10 9 11 9 7 11 12 12 11 7 6 4 1 7 2 6 4 3 7 13 6 7 7 7 5 2 1 3 3 2 1 3 1 3 4 5 6 3 1 4 3 1 1 2 2 1 2 2 1 6 9 9 5 6 10 6 6 8 9 10 12 11 10 12 7 4 4 3 6 9 9 10 10
27 24 23 22 21 18 17 17 13 12 12 11 15 13 8 10 11 12 9 7 9 10 11 8 4 6 5 5 3 6 5 2 7 2 14 7 7 7 7 6 3 2 4 5 2 1 1 3 4 4 3 1 2 2 3 3 1 2 3 3 2 4 8 6 7 11 9 6 8 10 6 6 9 10 10 10 11 13 11 8 5 4 4 4 4 5 9 11
28 24 22 22 19 16 16 15 10 10 10 12 15 10 6 9 10 11 8 6 6 6 9 6 3 5 2 1 5 4 4 2 5 5 11 8 6 4 5 3 2 5 6 6 3 1 3 5 4 3 4 4 4 1 0 1 2 2 4 6 6 10 12 8 9 10 6 4 9 10 5 4 8 9 8 8 9 10 10 9 8 7 8 6 4 3 5 8
28 24 22 20 17 14 12 8 5 8 10 8 4 3 6 9 10 10 6 5 5 2 4 3 2 2 1 3 4 1 3 1 3 3 6 7 5 4 5 2 1 5 7 5 4 2 3 4 2 3 5 6 6 3 4 3 1 2 3 8 9 10 10 9 9 7 3 3 7 9 4 2 6 7 7 7 7 9 9 9 9 8 8 7 5 5 4 6
28 24 21 19 15 11 7 5 8 11 8 3 6 6 7 9 9 7 4 3 2 1 3 3 3 1 2 2 3 4 4 3 2 2 3 1 3 4 3 2 2 5 6 2 3 2 3 3 1 2 5 5 4 1 4 5 2 2 6 10 11 12 9 9 7 3 0 1 4 7 3 3 2 4 6 7 6 8 9 8 9 9 9 9 8 7 7 8
28 23 19 17 14 8 6 9 11 10 6 8 9 8 8 9 8 4 2 2 2 1 2 1 3 1 5 3 3 6 3 1 3 1 6 2 3 2 3 4 4 5 5 2 2 4 2 0 1 1 2 4 2 4 7 8 5 2 4 6 6 5 1 4 3 1 1 2 4 5 3 2 1 3 3 5 5 7 8 9 10 10 11 10 9 9 8 8
28 22 19 16 11 6 6 8 10 9 9 11 10 9 9 9 7 2 2 3 2 1 1 1 1 4 6 5 7 7 4 2 3 3 6 4 3 2 3 3 4 5 4 2 0 4 3 3 4 2 1 2 3 3 4 4 2 2 2 3 4 7 6 3 1 3 3 1 3 4 4 1 0 2 3 5 6 7 8 9 10 11 11 11 10 10 9 7
28 22 19 14 6 4 6 7 8 9 9 10 10 10 11 7 4 4 4 2 2 1 2 3 3 3 4 6 5 6 6 4 2 4 6 4 6 5 3 1 3 3 3 3 2 4 1 3 3 1 1 2 2 2 1 1 1 3 3 2 5 5 3 1 2 1 2 1 2 2 3 3 1 2 3 3 3 4 7 8 9 12 12 12 11 10 9 9
27 21 16 11 5 4 5 4 3 6 7 9 11 11 9 5 3 4 3 1 2 5 3 3 4 3 5 7 3 4 6 3 2 4 4 4 5 5 3 0 3 3 2 4 4 6 0 3 1 1 1 3 1 1 2 5 5 4 3 2 3 2 3 3 3 4 2 1 3 2 5 5 3 1 1 4 6 5 6 7 8 11 12 12 10 10 11 9
25 19 13 10 8 9 10 6 7 8 7 9 11 8 5 4 3 4 4 2 3 5 5 3 6 6 7 8 5 6 6 2 3 4 3 2 1 3 4 2 3 2 2 2 3 7 5 1 1 1 1 3 3 0 3 5 5 4 4 3 1 2 4 3 3 3 1 2 3 3 3 3 3 3 6 8 9 8 7 5 6 8 10 11 9 9 7 9
24 17 11 9 9 10 11 10 9 10 9 9 8 5 4 5 4 4 5 5 2 4 5 5 8 9 8 7 6 6 5 4 5 4 5 6 5 6 4 7 8 3 1 1 1 2 3 2 2 1 1 1 2 2 1 3 3 3 3 2 0 1 2 2 2 2 2 3 4 5 4 3 3 4 8 9 9 10 10 4 2 5 4 7 9 7 7 8
22 16 10 10 10 8 8 10 9 9 9 7 5 5 5 6 6 6 6 6 5 6 8 8 10 11 9 5 5 6 3 4 8 8 7 6 4 3 3 7 9 6 3 1 1 0 2 2 2 3 2 2 2 0 2 1 1 4 5 5 3 2 1 0 0 2 4 4 4 5 4 3 3 4 5 6 7 8 7 3 5 5 5 1 6 7 8 5
21 14 10 11 10 7 6 8 8 7 5 5 4 5 6 6 6 6 5 6 7 8 10 10 10 10 8 4 6 9 7 5 7 6 5 5 1 0 2 4 7 5 2 1 1 2 4 4 4 4 3 3 3 3 4 2 2 3 3 4 3 0 2 1 3 4 5 5 3 3 3 2 2 5 3 3 6 6 4 2 4 3 7 8 4 6 7 4
16 9 7 9 9 6 4 5 6 5 4 5 5 6 6 6 6 4 4 5 7 9 11 10 8 6 6 6 6 10 11 8 6 5 4 4 3 4 6 1 4 6 2 2 2 2 4 2 5 5 3 3 4 4 6 4 1 1 2 4 4 5 5 2 3 4 3 5 3 1 3 2 1 5 5 2 6 4 5 6 3 5 8 7 5 5 6 4
13 6 7 8 7 5 5 6 5 5 4 5 5 5 7 7 6 5 5 7 8 10 9 7 5 4 4 3 3 7 10 8 5 4 4 4 4 5 6 6 6 3 2 3 2 2 4 1 4 4 0 3 5 2 4 5 3 1 1 2 5 8 4 2 2 4 3 4 3 2 3 2 2 2 4 1 9 9 8 9 7 9 10 7 6 6 7 8
11 8 10 9 4 4 6 6 5 6 5 5 7 8 9 9 6 4 6 8 9 9 7 5 3 5 6 3 3 7 8 7 7 6 4 3 3 5 5 3 10 2 5 5 3 4 3 1 2 2 1 3 6 2 2 4 5 3 2 3 5 5 2 2 2 3 3 5 4 2 3 3 2 3 1 5 9 9 10 11 10 11 10 9 10 10 10 9
9 8 6 5 6 5 6 6 5 6 5 5 8 7 6 7 6 3 6 7 8 7 5 1 2 2 8 6 4 5 4 4 6 7 5 3 2 8 3 4 7 6 6 5 4 3 3 1 1 2 1 2 2 1 1 2 5 6 5 1 4 2 2 2 1 0 2 4 5 3 3 4 3 2 4 8 8 8 10 9 10 11 11 11 11 10 9 9
8 6 1 7 7 6 6 5 4 5 6 6 7 7 6 7 5 4 5 7 6 5 3 2 4 1 4 6 6 5 5 2 4 4 5 4 3 8 7 4 4 9 8 5 5 3 1 1 2 3 2 1 0 1 1 2 4 3 2 0 1 1 3 4 2 1 0 2 5 5 3 3 3 2 4 8 8 8 10 9 10 11 12 13 12 10 9 8
7 6 2 7 7 7 6 4 5 5 6 6 8 10 7 5 7 8 7 5 4 4 4 6 6 2 1 4 4 3 3 3 4 3 4 4 4 2 8 9 6 6 8 4 5 3 2 1 2 2 1 3 2 6 7 5 4 3 1 1 1 2 3 3 3 0 2 0 4 6 4 2 3 3 2 6 7 7 9 11 10 11 12 13 13 11 10 9
6 4 3 9 9 8 5 5 5 5 6 6 6 8 5 3 6 10 7 4 4 5 5 5 6 5 3 4 3 3 5 5 3 3 3 5 4 1 9 14 9 7 6 5 6 2 1 2 3 1 3 7 0 8 6 2 1 5 4 3 2 3 4 2 1 1 0 3 5 6 5 2 3 4 1 6 8 8 10 10 11 11 12 12 13 13 13 11
5 4 4 10 10 7 5 5 6 5 6 7 6 6 7 6 6 7 5 4 4 5 5 5 6 6 4 4 4 5 6 6 4 4 2 1 3 6 13 18 12 7 5 5 4 0 2 2 4 1 3 5 4 11 7 4 2 4 4 1 1 1 6 6 3 2 2 3 4 4 4 3 2 5 1 7 9 9 9 10 11 11 10 12 13 12 12 12
6 6 2 9 10 7 5 5 5 4 4 9 10 8 9 8 7 7 7 6 5 5 6 5 6 7 5 6 6 5 4 3 4 6 4 1 5 10 13 16 13 10 5 4 3 3 2 2 3 3 1 2 6 8 5 5 3 1 1 2 4 6 7 9 5 4 3 1 2 4 5 5 3 1 2 7 10 11 11 10 11 11 9 10 11 10 11 12
6 6 2 7 9 7 6 6 6 5 3 7 9 9 9 7 5 5 7 8 7 6 6 5 6 7 7 8 9 6 4 4 4 8 9 9 10 10 10 11 12 9 9 10 8 5 3 2 3 3 3 1 3 1 1 1 2 3 3 6 9 9 8 7 4 4 4 1 2 5 7 7 6 4 4 6 8 11 12 11 11 11 10 10 10 9 10 11
4 5 3 3 6 5 6 6 6 6 4 5 6 8 9 7 3 2 4 7 6 5 7 7 6 6 6 7 8 6 5 7 5 5 6 5 7 7 10 12 8 6 8 14 13 7 2 1 5 5 5 4 2 2 2 2 3 3 6 8 9 10 9 6 5 5 6 6 7 7 9 10 9 8 6 5 7 10 10 11 11 10 10 11 10 10 10 10
3 4 4 1 1 3 5 5 5 5 4 3 3 5 8 9 7 3 3 5 6 6 7 7 7 7 6 8 9 7 6 5 4 2 0 3 7 6 9 12 7 3 4 9 10 5 1 2 5 6 8 8 4 1 3 2 3 4 8 9 11 11 9 8 7 5 6 6 6 7 11 12 10 9 9 9 10 9 8 9 10 9 10 10 10 11 12 11
4 5 3 1 2 4 4 3 4 7 7 4 4 6 7 9 8 5 5 7 8 8 6 5 7 7 6 6 4 6 7 5 3 1 1 3 6 7 7 7 6 3 3 5 6 4 2 3 4 6 9 11 9 7 4 2 3 7 9 10 11 11 10 10 7 4 5 6 7 10 12 12 10 9 10 10 10 10 8 9 9 9 10 11 12 12 13 13
5 5 4 2 4 6 5 2 3 8 8 4 4 5 6 7 7 6 6 7 8 8 7 7 8 8 7 4 2 5 7 6 5 3 2 3 5 6 5 5 6 4 3 4 5 3 2 2 2 5 8 9 11 13 9 1 6 8 9 9 11 12 11 10 9 9 11 12 12 13 14 12 9 9 9 9 10 10 9 9 9 10 11 11 12 13 13 13
4 4 5 6 7 6 6 5 5 7 5 1 2 4 4 6 6 6 6 6 7 7 7 8 9 10 10 6 4 2 1 7 11 9 4 2 2 4 2 2 4 5 3 3 4 3 3 1 2 4 4 5 10 14 6 8 10 8 8 8 9 11 10 11 11 11 13 14 14 14 14 10 7 8 9 9 9 10 10 10 10 10 10 11 12 13 12 12
8 8 5 5 6 6 6 5 4 6 3 1 1 4 5 5 6 6 7 7 7 7 7 8 9 9 9 7 4 2 4 8 11 12 8 5 3 3 2 2 4 4 3 2 3 2 3 2 3 3 2 4 10 13 2 11 11 8 10 8 6 7 8 8 7 7 9 13 13 12 10 7 7 8 9 9 10 10 10 10 10 10 10 11 11 12 12 11
10 9 7 5 6 6 6 6 5 4 2 1 2 5 6 6 6 7 6 6 6 7 8 9 9 8 8 8 8 6 5 8 11 12 12 9 8 7 5 5 6 6 4 1 3 2 3 2 2 2 3 5 6 7 6 2 5 6 6 6 5 6 8 8 7 7 7 8 8 7 7 8 9 9 9 10 10 10 9 9 8 9 10 11 10 11 12 11
Wind_Direction
342 341 338 338 337 334 335 332 330 329 326 324 322 320 315 315 313 312 311 309 307 306 305 305 307 308 310 312 310 314 316 309 301 286 264 254 266 286 287 265 259 248 251 274 255 254 263 247 234 230 229 227 231 239 239 236 225 223 223 221 232 234 233 237 234 238 245 247 251 237 235 234 164 95 103 104 95 94 81 74 79 72 85 109 122 133 139 140
343 341 337 336 336 333 332 331 328 327 325 322 321 319 314 313 313 311 310 309 306 305 304 303 306 309 311 312 313 319 319 304 287 278 269 266 280 295 290 273 265 249 228 232 235 236 244 247 234 225 227 227 223 227 233 232 225 224 225 225 225 231 237 242 245 244 247 248 280 328 318 15 72 80 111 112 100 102 96 93 97 99 106 116 127 136 140 142
344 340 336 334 335 332 330 330 328 324 323 322 321 319 315 312 311 310 309 308 306 304 302 302 305 308 310 313 314 321 319 302 287 276 262 266 285 294 283 258 244 235 218 222 235 241 252 265 256 235 226 230 230 222 224 224 230 231 223 230 225 229 239 244 249 247 250 253 288 5 11 48 53 42 92 126 126 119 121 139 136 131 133 133 137 139 141 145
345 340 337 334 334 332 329 328 326 323 321 321 320 318 316 312 309 308 308 307 305 303 302 304 305 307 311 311 314 319 311 297 296 65 18 322 326 308 277 232 223 219 215 227 246 263 270 271 267 255 234 228 231 227 238 229 225 235 229 236 226 222 233 245 252 252 256 258 51 51 48 64 60 38 35 139 145 140 155 169 148 144 144 140 141 141 143 147
347 343 339 335 334 331 328 327 324 322 320 318 319 318 315 312 308 306 305 306 305 304 303 303 306 309 308 309 315 312 298 304 42 63 6 347 343 320 271 210 198 193 207 225 241 261 266 257 257 260 246 235 235 235 244 233 232 245 239 243 237 226 230 245 255 256 255 253 56 42 53 68 60 39 23 56 114 140 282 329 129 144 141 143 143 142 146 150
349 347 343 338 335 331 329 326 322 320 318 317 315 315 316 313 310 306 304 305 305 304 304 304 307 308 309 311 308 292 277 309 30 34 358 357 5 35 112 153 157 171 208 225 237 249 245 242 243 247 248 240 232 250 246 234 241 253 250 244 239 241 242 251 266 271 272 307 48 51 46 56 73 56 32 47 60 354 342 1 313 167 142 144 143 144 150 151
350 349 346 342 337 334 330 325 322 319 317 315 313 314 314 313 310 306 304 304 304 305 305 304 306 307 314 316 296 252 248 273 15 41 6 30 62 96 109 123 147 169 217 231 239 245 237 236 228 229 251 242 206 247 252 251 248 251 261 254 239 240 249 288 325 5 33 33 36 54 57 52 73 77 41 33 59 42 343 42 14 278 145 145 142 146 150 150
350 349 348 343 340 336 331 327 322 317 316 314 312 312 311 310 310 306 304 302 301 303 303 303 306 310 319 319 298 245 248 249 113 61 22 68 88 109 118 134 158 179 214 232 243 243 245 245 228 226 246 245 284 258 247 270 277 262 262 267 247 233 315 19 8 31 52 47 29 44 53 54 69 88 70 12 23 90 324 86 93 41 136 150 147 148 150 151
350 349 347 344 340 336 332 329 322 316 316 312 311 311 308 308 307 307 304 301 300 300 302 302 303 312 315 302 286 283 292 108 118 103 55 93 115 127 155 176 180 201 219 239 264 263 264 258 252 276 269 232 329 286 258 300 288 282 279 289 291 295 33 29 21 37 57 61 47 55 44 50 93 99 82 339 292 91 306 213 141 128 137 178 162 153 154 151
349 347 346 344 339 336 332 329 323 316 313 312 311 309 308 307 306 307 303 299 298 295 298 299 303 314 304 283 270 287 84 119 134 153 125 141 170 178 205 211 203 226 244 268 264 263 258 251 252 282 289 284 313 287 318 303 246 260 275 281 341 21 34 30 24 33 59 60 56 86 78 332 147 125 115 213 239 118 167 225 157 135 144 212 192 155 151 150
346 344 343 342 339 336 332 328 324 316 313 313 311 308 308 308 305 305 301 297 295 295 297 294 300 303 294 283 272 287 129 144 153 156 160 174 199 222 227 220 233 254 294 312 244 249 252 309 300 271 294 271 252 253 219 235 234 247 270 275 14 25 43 40 27 22 46 53 36 87 126 216 213 164 145 179 210 85 132 188 164 145 141 217 219 153 146 150
344 342 340 340 339 336 333 329 323 316 314 312 310 310 308 307 305 302 299 296 293 292 289 283 288 288 291 278 257 270 154 175 177 159 173 181 205 245 249 221 251 275 302 306 297 275 213 279 284 270 328 273 271 269 224 233 243 265 293 305 360 21 59 36 10 27 47 88 29 42 145 180 155 136 121 130 88 60 66 171 162 168 139 197 226 151 143 151
343 340 338 338 338 336 333 330 324 317 313 311 311 310 307 306 304 299 296 292 285 279 275 273 268 273 285 277 256 256 195 196 185 176 186 191 201 231 259 250 267 289 288 297 292 271 212 212 264 278 258 260 285 259 253 261 256 263 269 295 343 11 67 30 324 15 47 107 85 58 154 192 155 134 107 102 111 95 193 200 181 199 153 173 212 152 145 151
343 340 336 336 335 335 333 329 325 318 313 311 311 310 309 308 303 297 294 287 279 274 262 233 255 267 258 268 277 222 195 203 187 197 203 201 205 207 255 265 260 271 274 279 275 247 232 233 248 273 219 218 222 199 250 260 212 219 234 231 296 2 49 17 313 327 39 123 129 130 209 199 152 137 131 134 135 122 156 214 200 212 166 162 181 152 147 152
342 339 336 333 333 334 331 328 325 318 314 312 312 313 310 310 307 300 293 283 270 244 222 231 234 240 252 263 260 204 201 215 202 210 214 203 210 216 239 283 266 267 280 287 284 239 274 272 246 249 221 219 224 195 202 222 195 193 210 210 208 173 87 330 304 248 247 158 156 180 225 160 130 145 156 156 173 124 136 216 203 190 174 157 160 151 148 155
341 338 335 332 332 332 329 328 325 319 315 311 314 314 312 316 313 305 300 275 233 166 156 242 218 215 270 300 187 188 204 219 214 211 213 207 219 227 208 283 281 266 260 262 283 282 335 306 273 260 255 238 224 197 203 206 178 189 210 202 204 178 138 328 305 258 255 229 170 189 229 119 133 182 175 159 192 133 142 217 206 172 168 159 157 154 150 154
339 337 334 332 330 330 328 326 324 320 314 314 317 314 315 319 311 313 322 249 187 187 205 255 247 216 258 296 202 211 196 210 222 204 207 217 227 218 182 226 294 287 273 255 274 312 319 300 287 248 221 235 230 197 201 199 178 180 201 182 161 185 153 134 269 256 248 238 185 183 212 145 142 184 193 164 179 154 176 212 198 174 171 163 160 159 157 161
338 336 333 331 331 329 327 325 323 319 314 315 317 316 320 314 302 303 297 127 148 220 225 257 280 258 263 246 234 230 155 186 222 195 202 218 224 203 180 221 297 341 328 298 243 267 239 305 309 271 226 217 219 203 194 202 192 174 185 191 157 184 184 160 198 224 214 223 202 184 194 146 139 176 195 178 160 170 236 223 189 177 174 163 163 166 167 171
338 335 334 332 331 328 325 324 322 319 315 314 319 322 315 300 278 246 233 200 191 238 268 228 200 259 313 270 241 254 106 149 191 189 201 206 214 212 206 224 219 114 16 343 233 229 234 224 257 272 255 226 211 188 236 260 212 159 175 197 161 179 189 155 177 206 188 201 203 185 168 136 147 175 186 192 156 154 251 239 191 172 172 164 168 175 171 176
339 336 335 332 332 329 324 324 321 320 317 316 329 324 297 291 306 252 219 216 229 248 280 257 199 259 308 3 309 324 110 169 188 193 198 189 207 220 219 222 210 180 161 223 240 247 250 266 239 235 259 265 258 129 260 266 188 124 150 191 167 174 172 145 168 213 191 189 194 170 133 137 154 166 175 193 165 181 242 233 189 166 170 167 172 180 177 177
340 337 335 332 333 329 323 322 318 317 314 316 328 303 293 354 359 332 319 265 254 241 258 265 247 279 306 347 311 344 127 208 201 181 174 180 208 220 219 210 207 249 235 194 135 21 240 272 242 211 228 251 249 190 234 254 135 140 159 150 166 169 159 149 183 207 198 196 176 145 128 143 171 177 173 176 174 204 232 220 188 171 166 164 173 179 178 171
341 338 335 332 332 329 323 319 315 312 307 305 291 259 286 359 356 322 318 295 289 273 262 265 266 281 252 240 345 54 284 261 206 166 157 182 205 204 249 224 148 27 243 180 145 238 235 229 203 193 206 226 231 210 216 226 110 169 118 73 194 112 48 342 250 217 204 214 164 149 150 156 198 196 175 178 177 207 233 216 177 163 160 161 172 175 172 165
343 339 334 332 331 328 319 314 314 304 291 261 243 257 299 347 341 320 306 280 289 281 264 265 288 305 261 324 48 62 262 301 321 178 157 184 220 217 276 293 76 116 243 240 147 216 253 177 137 161 195 223 229 187 195 184 172 205 142 164 241 80 101 256 257 225 205 207 166 160 164 155 180 188 176 185 179 183 215 207 115 102 147 168 174 168 168 170
343 340 334 332 332 328 318 314 308 285 266 240 246 264 320 343 331 325 311 273 277 270 262 270 298 302 321 29 18 265 268 339 325 186 149 184 240 230 277 304 342 333 312 336 21 228 351 82 92 78 55 22 71 129 197 196 186 229 221 208 181 192 213 209 192 191 188 193 176 168 171 163 180 186 169 176 181 175 183 178 143 146 169 187 185 167 169 169
343 341 334 333 334 328 319 313 293 262 247 238 247 261 326 339 328 328 318 274 274 245 243 258 256 277 340 106 233 291 341 275 330 49 147 201 257 262 286 292 315 321 308 310 312 306 80 117 143 109 76 33 32 76 134 284 219 233 232 216 189 192 213 206 168 165 161 168 181 184 195 169 178 190 169 157 174 173 167 172 175 175 180 186 188 189 180 170
342 341 335 334 336 329 323 317 290 281 266 248 267 335 334 330 331 328 315 273 283 205 190 199 186 246 265 208 204 311 317 271 29 44 176 222 280 283 295 324 323 294 284 295 327 321 112 131 164 85 71 35 15 20 58 44 359 323 235 209 211 215 208 190 168 162 154 148 186 207 229 151 174 191 178 165 173 171 169 175 178 182 185 184 182 183 190 181
342 340 334 332 336 333 317 309 313 306 294 318 3 348 327 328 331 327 309 273 286 203 205 180 152 204 243 187 160 238 283 46 28 266 166 207 266 220 241 329 325 281 273 337 20 313 147 135 191 116 94 70 14 340 114 112 103 292 237 197 208 229 207 183 182 160 151 174 189 200 166 93 193 213 174 170 185 176 174 184 186 191 189 187 184 177 189 184
341 339 333 330 334 325 281 292 306 300 323 0 341 321 332 327 314 306 301 314 30 16 264 135 91 247 243 205 205 264 306 58 270 182 118 186 250 206 244 276 275 273 264 243 6 312 299 15 306 24 91 117 158 203 165 161 166 210 230 177 188 241 157 165 205 21 317 222 178 178 159 111 267 272 177 162 195 194 192 199 199 200 195 193 189 179 191 177
339 337 331 327 330 321 286 282 286 286 317 339 330 320 322 310 301 274 248 295 340 22 196 111 110 225 248 251 240 266 289 261 286 116 150 206 185 188 283 288 294 304 291 262 287 291 307 8 7 18 349 50 109 163 168 185 187 91 53 72 51 15 26 43 34 14 345 300 167 179 182 157 199 231 188 179 204 206 204 208 207 206 197 197 196 182 185 160
338 334 329 324 319 328 307 264 265 287 306 319 325 317 301 284 286 273 261 298 327 312 191 210 244 232 283 298 263 272 279 265 269 177 194 207 174 196 257 13 31 11 339 6 349 272 186 83 6 29 312 338 50 60 97 128 100 79 67 78 63 32 354 344 71 89 353 2 232 204 99 77 135 174 165 190 239 236 217 215 211 205 197 202 197 178 182 164
336 332 327 315 275 261 276 253 301 320 310 319 323 309 288 263 261 276 289 321 300 316 315 265 281 278 289 302 296 289 288 275 260 235 227 221 196 211 234 135 54 52 351 4 341 310 305 136 320 61 263 291 320 24 89 104 92 81 65 80 105 127 212 219 176 180 188 126 201 161 94 87 101 99 355 313 320 300 243 233 226 208 194 199 194 183 188 158
335 329 321 308 276 249 252 280 340 329 311 322 318 295 275 270 260 262 299 322 271 296 321 315 304 302 297 302 299 296 305 314 288 283 302 333 354 285 258 135 74 42 353 9 358 335 337 28 359 165 200 318 326 298 131 108 86 75 49 32 126 180 184 186 177 174 150 112 115 95 90 80 74 41 354 335 329 309 278 260 251 231 200 193 189 181 167 121
333 323 311 308 290 258 252 272 306 313 313 318 304 271 265 282 282 275 300 328 304 278 302 307 303 303 304 311 314 310 308 304 310 329 341 358 15 323 310 115 120 125 79 6 35 344 315 6 359 268 155 88 303 299 118 108 107 115 95 85 223 237 177 163 156 132 109 110 64 30 13 18 44 28 0 344 335 319 303 313 343 303 254 195 187 158 110 103
331 316 297 299 295 274 255 257 277 303 313 303 274 256 262 268 282 292 302 318 319 314 314 313 315 309 298 298 315 320 324 328 336 351 358 16 54 337 351 123 133 125 134 243 118 147 325 32 44 349 32 161 219 340 64 27 215 177 163 171 217 275 193 191 244 110 107 101 55 22 13 26 29 13 356 341 340 318 293 3 48 360 358 109 182 145 109 108
330 312 291 288 286 284 268 253 264 286 291 279 263 262 260 260 283 301 322 324 319 326 322 319 325 316 305 323 346 340 336 336 341 340 355 23 96 77 52 156 156 134 159 302 66 350 355 40 81 67 77 151 157 138 117 50 271 210 186 189 218 240 122 88 25 69 98 104 72 37 49 51 1 350 358 37 4 320 237 101 63 48 35 41 60 80 82 80
333 311 287 271 251 246 247 230 238 250 255 266 262 254 260 281 306 317 341 327 315 323 323 325 337 337 338 350 2 351 331 324 354 354 345 350 325 19 40 323 192 161 194 20 80 343 1 76 133 129 141 121 107 125 130 128 194 194 208 222 189 124 126 153 72 86 108 97 84 83 99 148 204 349 333 91 63 43 149 137 109 97 76 63 62 71 85 81
328 283 267 262 226 199 207 204 212 230 243 261 262 267 281 296 309 316 331 331 325 326 331 346 355 345 340 331 340 348 324 311 349 355 335 346 338 22 42 336 312 162 139 24 72 75 16 11 143 128 247 142 145 176 164 182 234 238 168 189 151 132 146 218 119 124 152 99 95 153 125 145 141 54 313 65 79 70 96 107 103 107 111 119 111 104 123 126
313 274 266 258 210 171 193 191 199 226 240 254 256 260 268 275 286 309 331 335 331 328 344 16 357 319 334 347 315 321 321 326 340 331 332 31 7 360 62 359 320 326 114 27 13 112 89 9 82 71 344 137 153 211 254 226 235 249 326 54 137 164 195 230 170 130 141 120 116 118 91 63 65 93 70 71 78 76 79 79 76 84 92 99 94 89 104 120
288 272 267 206 170 162 172 174 196 231 245 251 253 256 263 271 281 340 355 339 329 329 352 53 186 319 345 337 295 311 16 25 329 313 332 59 18 328 32 125 315 338 82 48 21 94 98 23 42 76 75 98 137 209 308 250 207 221 276 324 164 185 67 110 184 87 113 127 126 114 93 79 55 47 65 69 71 76 81 78 73 73 67 70 83 87 91 99
277 275 239 142 154 164 162 177 217 236 241 244 257 275 293 296 308 7 358 329 318 322 337 268 223 142 340 314 315 347 39 42 295 317 350 17 14 330 346 72 12 352 7 34 66 64 40 70 9 20 42 286 215 122 149 204 215 226 265 223 155 31 70 100 76 39 154 142 122 112 97 73 50 5 49 71 69 65 75 76 71 72 66 65 77 89 93 93
288 291 183 153 166 171 172 217 232 234 245 250 262 271 286 329 327 313 305 305 305 302 306 302 308 353 332 308 327 341 341 319 317 356 357 1 52 18 334 353 28 10 338 5 66 28 11 82 323 337 303 271 190 164 182 185 215 246 237 315 350 52 72 65 59 254 255 49 104 111 108 49 348 306 34 79 82 71 75 76 70 69 67 66 73 80 84 84
269 295 151 162 174 178 202 252 245 242 249 253 269 280 295 341 303 290 290 302 305 300 308 311 313 335 347 311 323 345 333 329 350 13 2 6 38 213 304 329 7 38 358 21 62 43 86 51 319 275 286 301 78 146 169 145 255 269 291 331 346 93 99 86 115 231 210 99 107 109 106 68 306 287 24 85 90 81 76 78 78 77 73 73 74 72 71 71
267 318 134 165 182 195 235 266 259 256 262 280 304 304 298 295 287 295 307 310 315 316 320 316 310 329 338 290 313 2 332 318 356 357 336 336 326 323 322 325 345 25 13 26 46 218 146 41 324 323 276 288 95 111 128 138 160 273 292 289 288 88 116 127 151 136 97 121 136 116 99 101 273 285 21 91 96 88 81 80 81 81 77 76 77 74 73 71
297 304 179 174 188 209 246 260 272 291 310 314 316 305 294 288 284 299 310 319 332 318 309 315 319 329 326 305 334 12 332 318 353 335 337 357 326 335 333 333 356 17 9 14 356 324 24 19 321 340 310 179 123 115 144 163 159 289 306 88 35 23 81 109 130 122 98 283 188 124 106 107 129 262 57 87 94 91 87 84 83 85 84 80 77 73 74 74
300 285 236 173 184 212 251 271 300 317 301 296 299 296 294 282 265 297 314 308 306 305 309 318 319 326 336 338 349 2 353 12 1 343 6 3 329 322 319 340 21 22 357 5 352 332 35 13 316 349 355 93 126 130 115 83 311 329 19 55 51 36 60 99 117 98 90 27 42 96 111 115 114 100 66 67 85 90 88 85 83 87 92 92 91 88 84 84
299 280 290 179 188 222 248 258 276 277 274 292 297 301 304 298 299 340 314 299 303 315 311 307 310 321 335 342 340 337 357 25 23 10 28 347 307 312 315 327 12 31 9 15 359 337 51 349 326 342 328 324 4 35 66 341 313 36 51 46 53 48 50 80 84 76 99 90 64 84 114 122 118 112 105 96 88 84 82 83 84 84 88 92 94 93 91 91
287 298 324 339 240 259 252 259 272 275 302 333 305 307 308 303 312 338 326 323 332 322 305 306 320 323 341 360 350 333 342 19 28 18 86 267 283 305 315 316 337 22 27 27 10 352 50 340 329 337 319 307 303 247 184 222 331 61 75 61 60 59 60 76 84 97 118 103 92 115 120 115 113 110 109 106 95 85 80 82 85 85 87 91 94 93 92 91
298 311 341 128 235 276 286 321 325 303 307 311 297 308 308 305 317 332 327 321 320 318 313 313 320 324 355 34 14 321 331 353 17 9 268 302 311 319 330 325 327 357 24 28 27 16 348 325 327 330 314 308 313 305 258 205 46 57 69 70 72 72 72 82 90 107 118 117 137 140 123 111 111 105 97 93 93 96 97 95 95 94 91 93 95 94 93 91
321 323 351 339 283 290 294 294 278 279 290 311 307 300 301 309 320 322 319 314 310 318 319 317 325 326 335 11 4 347 358 332 310 330 327 326 326 323 342 347 327 331 360 32 46 20 319 290 321 327 315 315 318 304 291 358 80 75 67 66 75 75 72 83 92 96 104 117 133 128 112 105 106 106 102 97 97 102 103 100 99 94 90 88 84 80 80 82
340 322 339 328 309 299 287 280 269 268 275 333 304 300 314 320 320 321 319 307 302 314 317 317 325 320 321 350 14 20 169 262 292 323 333 298 309 309 326 348 309 307 330 35 47 355 311 312 343 328 320 321 295 279 280 80 84 84 71 57 68 78 75 80 91 101 109 118 124 118 109 105 107 109 108 104 102 102 101 99 96 93 91 88 84 78 72 70
335 309 311 304 302 304 290 277 265 270 284 61 306 318 333 320 320 326 315 300 300 312 314 312 317 315 317 338 347 283 221 249 290 311 306 282 275 272 237 231 272 285 301 33 53 316 293 339 345 321 308 302 287 285 317 100 103 86 66 47 51 83 84 82 96 112 120 127 129 124 119 122 127 123 116 111 103 96 93 92 91 92 90 86 86 87 81 74
344 321 320 297 285 300 294 270 255 269 306 16 277 299 313 311 321 327 316 310 313 313 315 317 319 314 310 319 330 323 288 277 288 297 297 293 283 267 232 224 249 263 277 27 65 355 317 333 322 322 317 285 285 318 341 117 130 92 59 20 30 86 95 90 88 82 99 136 146 132 128 133 136 132 121 111 101 92 87 81 78 82 82 77 74 76 80 77